Regional Weather Roundup
Issued by NWS Charleston, WV

Home | Current Version | Previous Version | Graphics & Text | Print | Product List | Glossary On
Versions: 1 2 3 4 5 6 7 8 9 10 11 12 13 14 15 16 17 18 19 20 21 22 23 24 25 26 27 28 29 30 31 32 33 34 35 36 37 38 39 40 41 42 43 44 45 46 47 48 49 50
000
ASUS41 KRLX 251510
RWRRLX
West Virginia Regional Weather Roundup
National Weather Service Charleston WV
1100 AM EDT SUN SEP 25 2016

Note: "fair" indicates few or no clouds below 12,000 feet with no
significant weather and/or obstructions to visibility.

WVZ003-251600-
Northern Panhandle of West Virginia

CITY           SKY/WX    TMP DP  RH WIND       PRES   REMARKS
WHEELING       SUNNY     64  51  62 E5        30.20R
$$

WVZ009-251600-
Northwest West Virginia

CITY           SKY/WX    TMP DP  RH WIND       PRES   REMARKS
PARKERSBURG    SUNNY     70  55  59 CALM      30.20R
$$

WVZ006-251600-
Western West Virginia

CITY           SKY/WX    TMP DP  RH WIND       PRES   REMARKS
HUNTINGTON     SUNNY     76  63  64 CALM      30.14F
$$

WVZ015-251600-
West Central West Virginia

CITY           SKY/WX    TMP DP  RH WIND       PRES   REMARKS
CHARLESTON     MOSUNNY   74  63  68 CALM      30.14F
$$

WVZ022-031-251600-
North Central West Virginia

CITY           SKY/WX    TMP DP  RH WIND       PRES   REMARKS
CLARKSBURG     SUNNY     67  56  67 E3        30.17S
MORGANTOWN     SUNNY     68  53  58 VRB5      30.20R
$$

WVZ025-035-042-045-251600-
Southern West Virginia

CITY           SKY/WX    TMP DP  RH WIND       PRES   REMARKS
BECKLEY        SUNNY     74  62  66 W6        30.20S
LOGAN            N/A     75  68  78 CALM      30.15F
BLUEFIELD      SUNNY     70  62  76 VRB3      30.23S
LEWISBURG      CLOUDY    66  62  86 CALM      30.21R
$$

WVZ047-251600-
Northern Mountains of West Virginia

CITY           SKY/WX    TMP DP  RH WIND       PRES   REMARKS
ELKINS         CLOUDY    64  59  83 CALM      30.20S HAZE
$$

WVZ052-251600-
Eastern Panhandle of West Virginia

CITY           SKY/WX    TMP DP  RH WIND       PRES   REMARKS
MARTINSBURG    CLOUDY    64  45  49 CALM      30.23S
PETERSBURG     CLOUDY    64  52  64 CALM      30.21F
$$



USA.gov is the U.S. government's official web portal to all federal, state and local government web resources and services.